Weather History for Jacksonville, IL

Change the Weather History Date:

Thursday, January 10, 2013

  Actual Average (KSPI) Record (KSPI)
Temperature  
Mean Temperature 42 °F 26 °F  
Max Temperature 53 °F 35 °F 61 °F (1975)
Min Temperature 32 °F 19 °F -18 °F (1982)
Degree Days  
Heating Degree Days 22 38  
Month to date heating degree days 380  
Since 1 July heating degree days 2520  
Cooling Degree Days 0 0  
Month to date cooling degree days 0  
Year to date cooling degree days 0  
Moisture  
Dew Point 39 °F    
Average Humidity 89    
Maximum Humidity 100    
Minimum Humidity 68    
Precipitation  
Precipitation 0.57 in 0.06 in 2.12 in (1975)
Month to date precipitation 0.65  
Year to date precipitation 0.65  
Snow  
Snow 0.00 in 0.20 in 2.50 in (1883)
Month to date snowfall 2.1  
Since 1 July snowfall 8.3  
Snow Depth -    
Sea Level Pressure  
Sea Level Pressure 30.15 in    
Wind  
Wind Speed 9 mph (ESE)    
Max Wind Speed 17 mph    
Max Gust Speed 23 mph    
Visibility 6 miles    
Events Fog , Rain    
T = Trace of Precipitation, MM = Missing Value Source: NWS Daily Summary

Daily Weather History Graph

Daily Weather History Graph

Search for Another Location

Airport:

Trip Planner

Search our weather history database for the weather conditions in past years. The results will help you decide how hot, cold, wet, or windy it might be!

Date:

Astronomy

Jan. 10, 2013 Rise Set
Actual Time 7:21 AM CST 4:55 PM CST
Civil Twilight 6:51 AM CST 5:25 PM CST
Nautical Twilight 6:18 AM CST 5:59 PM CST
Astronomical Twilight 5:45 AM CST 6:31 PM CST
Moon 6:01 AM CST (1/10) 4:03 PM CST (1/10)
Length of Visible Light 10h 33m
Length of Day
9h 34m
Waning Crescent, 2% of the Moon is Illuminated
Jan 10
Waning Crescent
Jan 11
New
Jan 18
First Quarter
Jan 26
Full
Feb 3
Last Quarter

Hourly Weather History & Observations

Time (CST) Temp. Windchill Dew Point Humidity Pressure Visibility Wind Dir Wind Speed Gust Speed Precip Events Conditions
12:15 AM 35.1 °F 31.0 °F 30.0 °F 82% 30.47 in 10.0 mi ESE 4.6 mph - N/A   Clear
12:35 AM 33.8 °F 29.6 °F 30.2 °F 87% 30.46 in 10.0 mi ESE 4.6 mph - N/A   Clear
12:55 AM 34.5 °F 29.4 °F 30.2 °F 84% 30.46 in 10.0 mi ESE 5.8 mph - N/A   Clear
2:15 AM 32.4 °F 27.9 °F 29.1 °F 88% 30.45 in 10.0 mi East 4.6 mph - N/A   Clear
2:35 AM 33.1 °F 27.7 °F 30.2 °F 89% 30.45 in 10.0 mi East 5.8 mph - N/A   Clear
2:55 AM 33.3 °F 25.7 °F 31.1 °F 92% 30.45 in 10.0 mi East 9.2 mph - N/A   Clear
3:15 AM 35.1 °F 29.3 °F 32.0 °F 89% 30.43 in 10.0 mi East 6.9 mph - N/A   Clear
3:35 AM 33.4 °F 27.3 °F 31.3 °F 92% 30.43 in 10.0 mi East 6.9 mph - N/A   Clear
3:55 AM 33.8 °F 27.7 °F 32.0 °F 93% 30.42 in 10.0 mi East 6.9 mph - N/A   Clear
4:15 AM 36.7 °F 30.5 °F 31.8 °F 83% 30.41 in 10.0 mi ESE 8.1 mph - N/A   Clear
4:35 AM 38.3 °F 31.9 °F 31.1 °F 75% 30.40 in 10.0 mi ESE 9.2 mph - N/A   Clear
4:55 AM 39.2 °F 33.6 °F 30.6 °F 71% 30.39 in 10.0 mi East 8.1 mph - N/A   Clear
5:15 AM 37.4 °F 30.3 °F 31.6 °F 80% 30.38 in 10.0 mi East 10.4 mph - N/A   Clear
5:35 AM 36.1 °F 30.6 °F 31.8 °F 84% 30.38 in 10.0 mi East 6.9 mph - N/A   Clear
5:55 AM 36.0 °F 29.6 °F 32.0 °F 86% 30.37 in 10.0 mi East 8.1 mph - N/A   Clear
6:15 AM 37.4 °F 30.8 °F 31.5 °F 79% 30.37 in 10.0 mi East 9.2 mph - N/A   Clear
6:35 AM 37.4 °F 30.8 °F 32.0 °F 81% 30.36 in 10.0 mi ENE 9.2 mph - N/A   Clear
6:55 AM 36.7 °F 28.9 °F 31.3 °F 81% 30.35 in 10.0 mi ENE 11.5 mph - N/A   Clear
7:15 AM 37.0 °F 29.8 °F 31.1 °F 79% 30.35 in 10.0 mi East 10.4 mph - N/A   Scattered Clouds
7:35 AM 37.0 °F 31.0 °F 31.3 °F 80% 30.34 in 10.0 mi East 8.1 mph - N/A   Scattered Clouds
7:55 AM 36.9 °F 30.1 °F 31.6 °F 81% 30.33 in 10.0 mi East 9.2 mph - N/A   Scattered Clouds
8:15 AM 37.4 °F 29.8 °F 31.5 °F 79% 30.33 in 10.0 mi East 11.5 mph - N/A   Mostly Cloudy
8:35 AM 37.4 °F 29.8 °F 31.8 °F 80% 30.32 in 10.0 mi East 11.5 mph - N/A   Mostly Cloudy
8:55 AM 37.4 °F 30.3 °F 32.0 °F 81% 30.31 in 10.0 mi East 10.4 mph - N/A   Mostly Cloudy
9:15 AM 38.3 °F 32.5 °F 32.2 °F 79% 30.30 in 10.0 mi East 8.1 mph - N/A   Overcast
9:35 AM 39.2 °F 32.5 °F 32.2 °F 76% 30.29 in 10.0 mi East 10.4 mph - N/A   Mostly Cloudy
9:55 AM 40.6 °F 33.4 °F 31.6 °F 70% 30.27 in 10.0 mi East 12.7 mph - N/A   Mostly Cloudy
10:15 AM 41.0 °F 33.5 °F 32.0 °F 70% 30.26 in 10.0 mi East 13.8 mph - N/A   Overcast
10:35 AM 41.9 °F 34.6 °F 32.0 °F 68% 30.24 in 10.0 mi East 13.8 mph - N/A   Light Drizzle
10:55 AM 41.4 °F 34.0 °F 32.9 °F 72% 30.22 in 10.0 mi East 13.8 mph - N/A   Mostly Cloudy
11:15 AM 41.4 °F 34.0 °F 33.4 °F 73% 30.21 in 5.0 mi East 13.8 mph - N/A Rain Rain
11:35 AM 41.2 °F 33.4 °F 34.0 °F 76% 30.20 in 5.0 mi East 15.0 mph - N/A   Haze
11:55 AM 40.5 °F 32.5 °F 36.1 °F 85% 30.16 in 2.0 mi ESE 15.0 mph - 0.01 in Rain Light Rain
12:15 PM 40.5 °F 31.8 °F 37.0 °F 88% 30.14 in 3.0 mi East 17.3 mph 21.9 mph N/A   Overcast
12:35 PM 40.5 °F 32.5 °F 37.9 °F 91% 30.12 in 3.0 mi ESE 15.0 mph 23.0 mph N/A   Overcast
12:55 PM 41.0 °F 33.1 °F 38.8 °F 92% 30.10 in 2.5 mi East 15.0 mph 18.4 mph N/A Rain Light Rain
1:15 PM 41.2 °F 33.4 °F 39.4 °F 93% 30.09 in 7.0 mi ESE 15.0 mph - N/A   Overcast
1:35 PM 41.5 °F 33.5 °F 40.1 °F 95% 30.08 in 5.0 mi ESE 16.1 mph - N/A   Overcast
1:55 PM 41.9 °F 34.0 °F 40.5 °F 95% 30.07 in 2.0 mi ESE 16.1 mph 21.9 mph N/A   Overcast
2:15 PM 42.4 °F 36.1 °F 41.2 °F 95% 30.08 in 0.8 mi ESE 11.5 mph - N/A   Overcast
2:35 PM 42.4 °F 36.5 °F 41.2 °F 95% 30.08 in 0.5 mi ESE 10.4 mph - N/A Fog Fog
2:55 PM 43.0 °F 36.4 °F 41.9 °F 96% 30.06 in 0.5 mi ESE 12.7 mph - N/A Fog Fog
3:15 PM 43.7 °F 38.6 °F 42.8 °F 97% 30.05 in 0.5 mi ESE 9.2 mph - N/A Fog Fog
3:35 PM 44.1 °F 38.1 °F 43.2 °F 97% 30.03 in 0.5 mi ESE 11.5 mph - N/A Fog Fog
3:55 PM 44.8 °F 39.0 °F 43.9 °F 97% 30.03 in 0.5 mi ESE 11.5 mph - N/A Fog Fog
4:15 PM 45.3 °F 40.1 °F 44.4 °F 97% 30.02 in 0.2 mi ESE 10.4 mph - N/A Fog Fog
4:35 PM 45.5 °F 39.9 °F 44.6 °F 97% 30.01 in 0.5 mi ESE 11.5 mph - N/A Fog Fog
4:55 PM 45.7 °F 40.6 °F 44.8 °F 97% 30.00 in 0.8 mi East 10.4 mph - 0.01 in Rain Light Rain
5:15 PM 45.5 °F 40.3 °F 44.8 °F 97% 29.98 in 0.5 mi East 10.4 mph - N/A Fog Fog
5:35 PM 45.7 °F 40.2 °F 45.0 °F 97% 29.97 in 0.8 mi East 11.5 mph - N/A   Drizzle
5:55 PM 45.9 °F 40.4 °F 45.1 °F 97% 29.96 in 1.2 mi East 11.5 mph - 0.01 in   Drizzle
6:15 PM 46.4 °F 40.4 °F 45.7 °F 97% 29.94 in 2.5 mi ESE 13.8 mph - 0.04 in Rain Rain
6:35 PM 46.6 °F - 45.9 °F 97% 29.94 in 4.0 mi ESE 12.7 mph - 0.09 in Rain Rain
6:55 PM 46.9 °F - 46.4 °F 98% 29.93 in 5.0 mi ESE 15.0 mph - 0.11 in Rain Light Rain
7:15 PM 46.8 °F - 46.0 °F 97% 29.93 in 4.0 mi ESE 15.0 mph - 0.01 in Rain Light Rain
7:35 PM 47.3 °F - 46.4 °F 97% 29.92 in 3.0 mi SE 11.5 mph - 0.03 in Rain Light Rain
7:55 PM 48.2 °F - 47.3 °F 97% 29.91 in 4.0 mi SE 11.5 mph - 0.03 in   Overcast
8:15 PM 48.6 °F - 47.8 °F 97% 29.91 in 4.0 mi SE 12.7 mph - 0.01 in   Light Drizzle
8:35 PM 49.1 °F - 48.4 °F 97% 29.89 in 2.5 mi ESE 13.8 mph - 0.01 in Rain Light Rain
8:55 PM 49.5 °F - 48.7 °F 97% 29.88 in 1.0 mi ESE 11.5 mph - 0.01 in   Overcast
9:15 PM 49.5 °F - 48.7 °F 97% 29.86 in 1.0 mi ESE 10.4 mph - 0.02 in Rain Rain
9:35 PM 50.2 °F - 49.5 °F 97% 29.85 in 2.5 mi ESE 11.5 mph - 0.11 in Rain Heavy Rain
9:55 PM 50.9 °F - 50.2 °F 97% 29.83 in 3.0 mi ESE 13.8 mph - 0.15 in Rain Light Rain
10:15 PM 51.3 °F - 50.7 °F 98% 29.82 in 4.0 mi SE 11.5 mph - 0.01 in Rain Rain
10:35 PM 51.8 °F - 51.1 °F 97% 29.80 in 4.0 mi ESE 13.8 mph - 0.12 in Rain Rain
10:55 PM 53.6 °F - 53.6 °F 100% 29.80 in 1.5 mi South 3.5 mph - N/A Rain Heavy Rain
11:15 PM 53.6 °F - 51.8 °F 94% 29.80 in 5.0 mi ESE 6.9 mph - N/A Rain Rain
11:35 PM 52.7 °F - 51.8 °F 97% 29.80 in 10.0 mi ESE 4.6 mph - 0.06 in   Overcast
11:55 PM 52.7 °F - 52.0 °F 97% 29.80 in 3.0 mi Calm Calm - 0.12 in Rain Heavy Rain